Weather in Bekeshevskaya

Russia / Stavropol Krai     44°06′54″N   42°25′43″E
temp.,
°C
wind,
m/s
gust,
m/s
humid.,
%
clouds,
%
prec.,
mm/h
press.,
hPa
HPBL,
m
18 may, wed
wed1800:00+8wsw337979 0.1 101744
03:00+6ssw227939 0.1 101711
06:00+7s227835 0.0 101648
09:00+13e436418 0.0 1014973
12:00+16ene555673 0.0 10111451
15:00+17e756332 0.0 10101046
18:00+14e56775 0.1 1010433
21:00+10ssw32895 0.1 101219
19 may, thu
thu1900:00+9ssw32690 0.0 101219
03:00+8sw33516 0.0 101321
06:00+9wnw23655 0.0 101481
09:00+12n3278100 0.0 1015722
12:00+9nnw3494100 0.2 1017513
15:00+6nw3597100 1.0 1019636
18:00+5wnw3893100 0.4 1020676
21:00+4wnw3796100 2.3 1021670
20 may, fri
fri2000:00+3wsw51190100 1.6 1021520
03:00+5w61481100 1.6 1020841
06:00+5w8157793 0.0 10211037
09:00+8wnw91170100 0.1 10211359
12:00+10wnw8106684 0.5 10201516
15:00+11nw7964100 1.1 10201504
18:00+8wnw698852 0.9 1021816
21:00+6wsw598981 1.6 1023431
21 may, sat
sat2100:00+6wsw488994 0.1 1022515
03:00+3sw34884 0.1 102146
06:00+5sw33797 0.0 102068
09:00+11nw245559 0.0 1017974
12:00+14nnw554975 0.0 10141438
15:00+16nnw455098 0.0 10121537
18:00+10nnw4688100 0.5 1013304
21:00+9sw4885100 2.1 1013207
22 may, sun
sun2200:00+7ssw458317 0.1 101271
03:00+7sw447537 0.1 101249
06:00+9sw35735 0.0 101275
09:00+13n345918 0.0 1010918
12:00+15ne335984 0.0 10081376
15:00+15ene446636 0.0 1007872
18:00+13ene237995 0.0 1007419
21:00+10s1194100 0.7 100731